TimeCST,TemperatureF,Dew PointF,Humidity,Sea Level PressureIn,VisibilityMPH,Wind Direction,Wind SpeedMPH,Gust SpeedMPH,PrecipitationIn,Events,Conditions,WindDirDegrees,DateUTC
12:53 AM,35.1,32.0,89,29.63,10.0,West,3.5,-,N/A,,Clear,260,2013-03-04 06:53:00
1:53 AM,39.0,32.0,76,29.64,10.0,WSW,9.2,-,N/A,,Clear,240,2013-03-04 07:53:00
2:53 AM,39.0,32.0,76,29.64,10.0,WSW,8.1,-,N/A,,Clear,240,2013-03-04 08:53:00
3:53 AM,39.9,30.9,70,29.66,10.0,WNW,11.5,-,N/A,,Clear,290,2013-03-04 09:53:00
4:53 AM,39.9,30.9,70,29.70,10.0,NW,24.2,-,N/A,,Clear,320,2013-03-04 10:53:00
5:53 AM,37.0,28.9,73,29.74,10.0,NNW,23.0,33.4,N/A,,Scattered Clouds,330,2013-03-04 11:53:00
6:53 AM,35.1,28.0,76,29.77,10.0,NNW,17.3,27.6,N/A,,Scattered Clouds,340,2013-03-04 12:53:00
7:53 AM,35.1,28.0,76,29.81,10.0,NNW,16.1,24.2,N/A,,Clear,330,2013-03-04 13:53:00
8:53 AM,36.0,27.0,70,29.83,10.0,NNW,20.7,-,N/A,,Mostly Cloudy,340,2013-03-04 14:53:00
9:53 AM,37.9,27.0,65,29.83,10.0,North,19.6,34.5,N/A,,Mostly Cloudy,360,2013-03-04 15:53:00
10:53 AM,39.9,25.0,55,29.83,10.0,North,21.9,-,N/A,,Overcast,10,2013-03-04 16:53:00
11:53 AM,44.1,24.1,45,29.83,10.0,North,18.4,26.5,N/A,,Mostly Cloudy,10,2013-03-04 17:53:00
12:53 PM,45.0,23.0,42,29.83,10.0,NNE,17.3,-,N/A,,Mostly Cloudy,20,2013-03-04 18:53:00
1:53 PM,44.1,21.0,40,29.87,10.0,NW,15.0,-,N/A,,Overcast,320,2013-03-04 19:53:00
2:21 PM,39.2,24.8,56,29.86,2.5,WNW,20.7,39.1,N/A,,Haze,300,2013-03-04 20:21:00
2:36 PM,39.2,28.4,65,29.85,9.0,NE,11.5,23.0,0.00,,Overcast,40,2013-03-04 20:36:00
2:53 PM,39.9,28.0,63,29.89,10.0,NNW,27.6,39.1,0.00,,Overcast,330,2013-03-04 20:53:00
3:00 PM,39.2,26.6,61,29.87,10.0,NNW,25.3,36.8,N/A,,Overcast,340,2013-03-04 21:00:00
3:53 PM,39.9,24.1,53,29.95,10.0,NNW,24.2,31.1,N/A,,Overcast,330,2013-03-04 21:53:00
4:53 PM,39.0,27.0,62,30.00,10.0,NW,8.1,-,N/A,,Overcast,310,2013-03-04 22:53:00
5:53 PM,39.0,19.9,46,30.05,10.0,NNW,23.0,28.8,N/A,,Overcast,330,2013-03-04 23:53:00
6:53 PM,37.0,18.0,46,30.10,10.0,NNW,23.0,-,N/A,,Mostly Cloudy,330,2013-03-05 00:53:00
7:53 PM,34.0,12.9,42,30.15,10.0,NNW,29.9,44.9,N/A,,Clear,330,2013-03-05 01:53:00
8:53 PM,32.0,10.9,42,30.17,10.0,NW,27.6,-,N/A,,Clear,320,2013-03-05 02:53:00
9:53 PM,28.9,9.0,43,30.22,10.0,NW,24.2,42.6,N/A,,Unknown,320,2013-03-05 03:53:00
10:53 PM,27.0,10.9,51,30.25,10.0,NW,26.5,32.2,N/A,,Clear,320,2013-03-05 04:53:00
11:53 PM,26.1,12.0,55,30.26,10.0,NW,18.4,-,N/A,,Clear,320,2013-03-05 05:53:00